This is the latest recevied weather packets stored in our database for station/object SV2RIM-2. If no packets are shown the sender has not sent any weather packets the latest 10 day(s).
| Time | Temp. | Humidity | Pressure | Rain* | Wind** | Luminosity | Snow |
|---|---|---|---|---|---|---|---|
| 1787776221 | 27.22° C | 52% | 1015.1 hPa | - | - | - | - |
| 1787775621 | 27.22° C | 51% | 1015.1 hPa | - | - | - | - |
| 1787775019 | 27.22° C | 51% | 1014.9 hPa | - | - | - | - |
| 1787774419 | 27.22° C | 50% | 1014.7 hPa | - | - | - | - |
| 1787773820 | 27.22° C | 49% | 1014.5 hPa | - | - | - | - |
| 1787773220 | 27.78° C | 47% | 1014.3 hPa | - | - | - | - |
| 1787772619 | 27.78° C | 47% | 1014 hPa | - | - | - | - |
| 1787772019 | 27.78° C | 46% | 1013.8 hPa | - | - | - | - |
| 1787771419 | 28.33° C | 44% | 1013.6 hPa | - | - | - | - |
| 1787770820 | 28.89° C | 42% | 1013.5 hPa | - | - | - | - |
| 1787770219 | 29.44° C | 40% | 1013.3 hPa | - | - | - | - |
| 1787769619 | 29.44° C | 39% | 1013 hPa | - | - | - | - |
| 1787769019 | 29.44° C | 39% | 1013.1 hPa | - | - | - | - |
| 1787768419 | 29.44° C | 39% | 1012.9 hPa | - | - | - | - |
| 1787767820 | 29.44° C | 38% | 1012.6 hPa | - | - | - | - |
| 1787767220 | 30° C | 38% | 1012.4 hPa | - | - | - | - |
| 1787766622 | 30° C | 37% | 1012.2 hPa | - | - | - | - |
| 1787766019 | 30.56° C | 36% | 1012.2 hPa | - | - | - | - |
| 1787765420 | 31.11° C | 35% | 1012.3 hPa | - | - | - | - |
| 1787764819 | 31.67° C | 34% | 1012.2 hPa | - | - | - | - |
| 1787764219 | 32.78° C | 32% | 1012.1 hPa | - | - | - | - |
| 1787763619 | 33.89° C | 30% | 1011.8 hPa | - | - | - | - |
| 1787763019 | 33.89° C | 30% | 1011.6 hPa | - | - | - | - |
| 1787762419 | 34.44° C | 30% | 1011.6 hPa | - | - | - | - |
| 1787761820 | 35° C | 29% | 1011.5 hPa | - | - | - | - |
* Rain since midnight (hover to see other rain measurements)
** Current wind speed in m/s (hover to see current wind gust speed)